URMN Weather Reports


time (UTC)temp
C
wind
direction
speed
KPH
gust
KPH
rain 1hr
cm
rain 24hr
cm
rain mn
cm
humidity
%
barometer
mb
20260507120043 15 270 17.7 0.0 0.00 0.00 0.00 63 1017.0
20260507113043 15 270 17.7 0.0 0.00 0.00 0.00 63 1017.0
20260507110044 17 260 17.7 0.0 0.00 0.00 0.00 48 1017.0
20260507100043 18 340 6.4 0.0 0.00 0.00 0.00 42 1017.0
20260507093046 20 30 6.4 0.0 0.00 0.00 0.00 39 1017.0
20260507090043 20 30 6.4 0.0 0.00 0.00 0.00 39 1018.0
20260507083044 17 300 3.2 0.0 0.00 0.00 0.00 45 1018.0
20260507080045 18 260 6.4 0.0 0.00 0.00 0.00 42 1018.0
20260507073043 18 220 14.5 0.0 0.00 0.00 0.00 45 1018.0
20260507070045 16 240 14.5 0.0 0.00 0.00 0.00 48 1018.0
20260507060043 15 220 11.3 0.0 0.00 0.00 0.00 58 1018.0
20260507053043 13 210 11.3 0.0 0.00 0.00 0.00 62 1018.0
20260507043045 11 220 11.3 0.0 0.00 0.00 0.00 71 1017.0
20260507040044 10 210 3.2 0.0 0.00 0.00 0.00 76 1017.0
20260507033044 10 210 3.2 0.0 0.00 0.00 0.00 76 1017.0
20260507030044 10 230 3.2 0.0 0.00 0.00 0.00 71 1016.0
20260507023045 10 230 3.2 0.0 0.00 0.00 0.00 71 1016.0
20260507020043 10 240 11.3 0.0 0.00 0.00 0.00 76 1016.0
20260507013044 10 240 11.3 0.0 0.00 0.00 0.00 76 1016.0
20260507010043 10 240 6.4 0.0 0.00 0.00 0.00 81 1016.0
20260507003045 10 240 6.4 0.0 0.00 0.00 0.00 81 1016.0
20260506233045 7 240 6.4 0.0 0.00 0.00 0.00 87 1015.0
20260506230044 8 230 3.2 0.0 0.00 0.00 0.00 81 1015.0
20260506223044 8 230 3.2 0.0 0.00 0.00 0.00 81 1015.0
20260506220046 8 0 0.0 0.0 0.00 0.00 0.00 87 1015.0
20260506213045 8 0 0.0 0.0 0.00 0.00 0.00 87 1015.0
20260506210045 11 210 6.4 0.0 0.00 0.00 0.00 76 1015.0
20260506203046 11 210 6.4 0.0 0.00 0.00 0.00 76 1015.0
20260506200047 11 200 6.4 0.0 0.00 0.00 0.00 76 1016.0
20260506193045 11 200 6.4 0.0 0.00 0.00 0.00 76 1016.0
20260506190045 11 270 11.3 0.0 0.00 0.00 0.00 81 1015.0
20260506183045 11 270 11.3 0.0 0.00 0.00 0.00 81 1015.0
20260506173045 13 220 11.3 0.0 0.00 0.00 0.00 67 1015.0
20260506170045 13 220 11.3 0.0 0.00 0.00 0.00 71 1014.0
20260506163046 13 220 11.3 0.0 0.00 0.00 0.00 71 1014.0
20260506153046 15 220 11.3 0.0 0.00 0.00 0.00 58 1014.0
20260506150045 15 210 6.4 0.0 0.00 0.00 0.00 58 1014.0
20260506143045 15 260 6.4 0.0 0.00 0.00 0.00 63 1014.0
20260506140046 15 270 6.4 0.0 0.00 0.00 0.00 58 1014.0
20260506133046 15 230 3.2 0.0 0.00 0.00 0.00 58 1014.0
20260506130045 15 330 3.2 0.0 0.00 0.00 0.00 58 1014.0
20260506123044 15 330 3.2 0.0 0.00 0.00 0.00 58 1014.0